CZ-3B DEB, 39334

Orbit data source: Space-Track

CZ-3B DEB, 39334 is space debris in HEO originally from a launch on Sat, 04 Sep 2010 UTC launched from the Xichang Space Center, China (XSC). Debris objects in space refer to the collection of defunct objects orbiting the Earth. Examples of debris include non-operational satellites, rocket bodies, and fragments generated from explosions, collisions, or faulty payload assembly.

Loading next visibility...
CZ-3B DEB details
Identifier
39334, 2010-042F
Orbit
HEO
Last TLE update3 days ago
Origin
Flag of CNCASC (CN / PRC)
ManufacturerCALT
MissionSpacecraft
Bus & MotorUnknown
MassUnknown
Launch date (UTC)
2010-09-04 (14 years ago)
Launch vehicleUnknown
Launch site
Xichang Space Center, China (XSC)
Object type
Payload
Rocket body
Debris
Shape & HBRUnknown
Radar Cross SectionMedium (>0.1 m² and <1 m²)

Expand to show TLE details & history

TLE from 3 days ago
0 CZ-3B DEB
1 39334U 10042F   25021.28418539 -.00000045  00000-0  00000-0 0  9999
2 39334  26.8567   3.1126 7332879 198.4636 340.0372  1.86377495 88271
Epoch: 2025-01-21T06:49Z
Definitive object data (Epoch: 2025-01-21T06:49:13.617Z)
Latitude26.8316°
Longitude-125.50064°
Altitude9,429.53 km
Speed6.012 km/s
True Right ascension06h 30m 47s
True Declination26° 46' 09"
Sunlit
Object was in daylight at TLE epoch
Visualization TLE readout
Latitude-16.5391°
Longitude103.28437°
Altitude14,504.256 km
Speed4.887 km/s
Apparent Right ascension22h 38m 18s
Apparent Declination-25° 06' 10"
Sunlit
Object is in daylight
Visualization observer readout
Local Sidereal Time15:09:23
Azimuth97.178° ESE
Elevation-32.342°
Doppler factor1
Orbital elements
Apogee altitude41,972.045 km
Perigee altitude1,061.815 km
Semi-major axis27,895.067 km
Eccentricity0.7332879
Inclination26.8567°
RAAN3.1126°
Arg. of periapsis198.4636°
True anomaly255.28222°
Mean anomaly340.0372°
Eccentric anomaly306.08252°
Mean motion0.46586 °/min
BSTARUnknown
Orbital period772.77 mins
Loading maneuver chart data...
Loading historical data...
Loading historical data...
Loading historical data...
Loading historical data...
Loading historical data...
Loading historical data...
Loading historical data...

CZ-3B DEB Visibility forecast

Observer location: undefined°, undefined

Span
Click to sort rows by Start time (UTC) header in descending order
Start Az.
Max El. time (UTC)
Max El. Az.
Max El.
End time (UTC)
End Az.
355 mins2025-01-24 19:04:17.961Z93.9° ESE2025-01-24 23:32:17.961Z103.547° ESE33.328°2025-01-25 00:59:17.961Z82.241° E
|